Amsterdam, Netherlands

4:44 AM CEST on October 01, 2016 (GMT +0200)
Schiphol

Weather History for EHAM - October, 2012

Change the Weather History Date:

Friday, October 26, 2012

  Actual Average Record
Temperature  
Mean Temperature 42 °F -  
Max Temperature 46 °F 55 °F 68 °F (2006)
Min Temperature 37 °F 45 °F 33 °F (2003)
Degree Days  
Heating Degree Days 24    
Moisture  
Dew Point 30 °F    
Average Humidity 57    
Maximum Humidity 82    
Minimum Humidity 30    
Precipitation  
Precipitation 0.00 in - - ()
Sea Level Pressure  
Sea Level Pressure 29.89 in    
Wind  
Wind Speed 10 mph ()    
Max Wind Speed 17 mph    
Max Gust Speed 25 mph    
Visibility 7.6 miles    
Events Rain    
Averages and records for this station are not official NWS values.
T = Trace of Precipitation, MM = Missing Value Source: Averaged Metar Reports

Daily Weather History Graph

Daily Weather History Graph

Search for Another Location

Airport or City:

Trip Planner

Search our weather history database for the weather conditions in past years. The results will help you decide how hot, cold, wet, or windy it might be!

Date:

Astronomy

Oct. 26, 2012 Rise Set
Actual Time 8:26 AM CEST 6:22 PM CEST
Civil Twilight 7:50 AM CEST 6:57 PM CEST
Nautical Twilight 7:11 AM CEST 7:37 PM CEST
Astronomical Twilight 6:31 AM CEST 8:16 PM CEST
Moon 4:47 PM CEST (10/26) 4:45 AM CEST (10/26)
Length of Visible Light 11h 06m
Length of Day
9h 56m
Waxing Gibbous, 89% of the Moon is Illuminated
Oct 26
Waxing Gibbous
Oct 29
Full
Nov 7
Last Quarter
Nov 13
New
Nov 20
First Quarter

Hourly Weather History & Observations

Time (CEST) Temp. Windchill Dew Point Humidity Pressure Visibility Wind Dir Wind Speed Gust Speed Precip Events Conditions
12:25 AM 48.2 °F - 41.0 °F 76% 30.01 in - North 4.6 mph - N/A   Clear
12:55 AM 48.2 °F - 41.0 °F 76% 30.01 in 6.2 mi North 5.8 mph - N/A   Partly Cloudy
1:25 AM 48.2 °F - 42.8 °F 82% 30.01 in 6.2 mi North 11.5 mph - N/A Rain Light Rain
1:55 AM 46.4 °F 39.5 °F 41.0 °F 81% 30.01 in 6.2 mi NE 17.3 mph - N/A   Light Drizzle
2:00 AM 47 °F - 42 °F 76% 30.03 in 19 mi NE 13.4 mph - -   Partly Cloudy
2:25 AM 46.4 °F 40.7 °F 41.0 °F 81% 30.01 in 6.2 mi NNE 12.7 mph - N/A   Mostly Cloudy
2:55 AM 48.2 °F - 39.2 °F 71% 30.01 in 6.2 mi NNE 13.8 mph - N/A   Mostly Cloudy
3:25 AM 48.2 °F - 37.4 °F 66% 30.01 in 6.2 mi NE 12.7 mph - N/A   Mostly Cloudy
3:55 AM 46.4 °F 40.1 °F 35.6 °F 66% 30.01 in 6.2 mi NE 15.0 mph - N/A   Partly Cloudy
4:25 AM 46.4 °F 40.7 °F 33.8 °F 62% 30.01 in 6.2 mi NE 12.7 mph - N/A   Partly Cloudy
4:55 AM 46.4 °F 40.4 °F 33.8 °F 62% 29.98 in 6.2 mi NE 13.8 mph - N/A   Partly Cloudy
5:00 AM 47 °F - 35 °F 53% 30.00 in 16 mi NE 13.4 mph - -   Overcast
5:25 AM 46.4 °F 40.4 °F 32.0 °F 57% 29.98 in 6.2 mi ENE 13.8 mph - N/A   Partly Cloudy
5:55 AM 46.4 °F 40.4 °F 32.0 °F 57% 29.98 in 6.2 mi ENE 13.8 mph - N/A   Partly Cloudy
6:25 AM 44.6 °F 38.4 °F 30.2 °F 57% 29.98 in - ENE 12.7 mph - N/A   Clear
6:55 AM 44.6 °F 39.2 °F 30.2 °F 57% 29.98 in - ENE 10.4 mph - N/A   Clear
7:25 AM 42.8 °F 37.5 °F 30.2 °F 61% 29.98 in 6.2 mi ENE 9.2 mph - N/A   Partly Cloudy
7:55 AM 42.8 °F 37.5 °F 30.2 °F 61% 29.98 in 6.2 mi ENE 9.2 mph - N/A   Partly Cloudy
8:00 AM 43 °F - 30 °F 48% 29.98 in 19 mi East 8.9 mph - -   Partly Cloudy
8:25 AM 41.0 °F 36.4 °F 30.2 °F 65% 29.95 in 6.2 mi ENE 6.9 mph - N/A   Partly Cloudy
8:55 AM 42.8 °F 37.5 °F 30.2 °F 61% 29.95 in 6.2 mi East 9.2 mph - N/A   Partly Cloudy
9:25 AM 42.8 °F 38.6 °F 32.0 °F 66% 29.95 in 6.2 mi East 6.9 mph - N/A   Partly Cloudy
9:55 AM 42.8 °F 38.6 °F 30.2 °F 61% 29.95 in 6.2 mi East 6.9 mph - N/A   Partly Cloudy
10:25 AM 44.6 °F 37.8 °F 30.2 °F 57% 29.95 in 6.2 mi East 15.0 mph - N/A   Partly Cloudy
10:55 AM 44.6 °F 38.1 °F 30.2 °F 57% 29.95 in 6.2 mi East 13.8 mph - N/A   Partly Cloudy
11:00 AM 45 °F - 32 °F 48% 29.97 in 18 mi East 11.2 mph - -   Partly Cloudy
11:25 AM 44.6 °F 38.8 °F 32.0 °F 61% 29.95 in 6.2 mi East 11.5 mph - N/A   Partly Cloudy
11:55 AM 46.4 °F 41.5 °F 32.0 °F 57% 29.92 in 6.2 mi East 10.4 mph - N/A   Partly Cloudy
12:25 PM 44.6 °F 38.8 °F 30.2 °F 57% 29.92 in 6.2 mi East 11.5 mph - N/A   Partly Cloudy
12:55 PM 46.4 °F 41.5 °F 30.2 °F 53% 29.92 in 6.2 mi ENE 10.4 mph - N/A   Partly Cloudy
1:25 PM 44.6 °F 38.1 °F 28.4 °F 53% 29.89 in 6.2 mi NE 13.8 mph 25.3 mph N/A   Partly Cloudy
1:55 PM 44.6 °F 38.4 °F 28.4 °F 53% 29.89 in 6.2 mi ENE 12.7 mph - N/A   Partly Cloudy
2:25 PM 44.6 °F 38.4 °F 28.4 °F 53% 29.86 in - NE 12.7 mph - N/A   Clear
2:55 PM 44.6 °F 38.1 °F 26.6 °F 49% 29.86 in - NNE 13.8 mph - N/A   Clear
3:25 PM 44.6 °F 38.4 °F 24.8 °F 46% 29.83 in - NE 12.7 mph - N/A   Clear
3:55 PM 44.6 °F 37.8 °F 26.6 °F 49% 29.83 in - ENE 15.0 mph - N/A   Clear
4:25 PM 42.8 °F 35.4 °F 24.8 °F 49% 29.83 in - NE 15.0 mph - N/A   Clear
4:55 PM 42.8 °F 35.8 °F 26.6 °F 53% 29.80 in - NE 13.8 mph - N/A   Clear
5:00 PM 42 °F - 26 °F 40% 29.82 in 28 mi NNE 15.7 mph - -   Overcast
5:25 PM 42.8 °F 35.4 °F 24.8 °F 49% 29.80 in - NE 15.0 mph - N/A   Clear
5:55 PM 41.0 °F 34.3 °F 24.8 °F 53% 29.80 in - ENE 11.5 mph - N/A   Clear
6:25 PM 42.8 °F 36.6 °F 26.6 °F 53% 29.77 in - ENE 11.5 mph - N/A   Clear
6:55 PM 41.0 °F 34.7 °F 24.8 °F 53% 29.77 in - NE 10.4 mph - N/A   Clear
7:25 PM 41.0 °F 35.2 °F 24.8 °F 53% 29.77 in - NNE 9.2 mph - N/A   Clear
7:55 PM 41.0 °F 36.4 °F 26.6 °F 57% 29.77 in - North 6.9 mph - N/A   Clear
8:00 PM 40 °F - 27 °F 47% 29.79 in 28 mi North 6.7 mph - -   Partly Cloudy
8:25 PM 39.2 °F 34.2 °F 26.6 °F 61% 29.77 in - North 6.9 mph - N/A   Clear
8:55 PM 39.2 °F 35.0 °F 24.8 °F 56% 29.77 in - North 5.8 mph - N/A   Clear
9:25 PM 39.2 °F 34.2 °F 23.0 °F 52% 29.77 in - North 6.9 mph - N/A   Clear
9:55 PM 39.2 °F 34.2 °F 23.0 °F 52% 29.74 in 6.2 mi North 6.9 mph - N/A   Partly Cloudy
10:25 PM 39.2 °F 33.0 °F 21.2 °F 49% 29.74 in 6.2 mi NNE 9.2 mph - N/A   Partly Cloudy
10:55 PM 41.0 °F 36.4 °F 23.0 °F 49% 29.74 in 6.2 mi NE 6.9 mph - N/A   Partly Cloudy
11:00 PM 41 °F - 20 °F 30% 29.74 in 28 mi NNE 6.7 mph - -   Overcast
11:25 PM 37.4 °F 32.8 °F 21.2 °F 52% 29.71 in 6.2 mi North 5.8 mph - N/A   Partly Cloudy
11:55 PM 37.4 °F 34.9 °F 23.0 °F 56% 29.71 in 6.2 mi North 3.5 mph - N/A   Partly Cloudy